Location: Tel Aviv
(32.0670°N, 34.7670°E)
Time: 12:18:59
(UTC+03:00)

Explorer 11/Cluster Stage 4 - Pass Details

Date: 13 September 2024
Orbit: 464 x 1208 km, 28.8° (Epoch: 06 October)

Event Time Altitude Azimuth Distance (km) Brightness Sun altitude
Rises 05:31:44 0° 202° (SSW) 3,430 9.5 -11.7°
Reaches altitude 10° 05:35:16 10° 180° (S) 2,651 9.2 -11.0°
Maximum altitude 05:38:58 16° 146° (SE) 2,403 9.4 -10.2°
Drops below altitude 10° 05:42:58 10° 112° (ESE) 2,935 10.5 -9.4°
Sets 05:47:12 0° 92° (E) 4,006 12.2 -8.5°
